�N����,����,�~����,�C��,���x,�C��,����,���ϕ���,�ő�u�ԕ���,�ő厞����,���˗�,�I�_���x,�n�����x,�ő啗���N��,DTYPE
"22/07/08","00:10",0.0,23.3,83.7,1003.1,316.1,1.2,2.5,306.8,0.00,20.4,25.1,"00:06:56",1
"22/07/08","00:20",0.0,23.2,84.0,1003.4,272.6,0.8,1.3,301.6,0.00,20.4,25.3,"00:10:08",1
"22/07/08","00:30",0.0,23.1,84.4,1003.1,307.4,1.1,1.8,325.9,0.00,20.4,25.2,"00:22:16",1
"22/07/08","00:40",0.0,23.1,84.9,1003.4,309.8,1.3,1.8,319.3,0.00,20.5,25.1,"00:33:52",1
"22/07/08","00:50",0.0,23.1,85.2,1003.6,334.9,1.1,2.1,333.3,0.00,20.5,25.2,"00:41:20",1
"22/07/08","01:00",0.0,22.9,85.5,1003.1,296.0,0.8,1.7,334.6,0.00,20.4,25.3,"00:59:52",1
"22/07/08","01:10",0.0,23.0,85.9,1003.1,333.7,1.7,2.9,337.7,0.00,20.6,25.1,"01:07:12",1
"22/07/08","01:20",0.0,23.0,86.0,1002.9,336.7,1.7,2.9,344.4,0.00,20.6,25.1,"01:16:00",1
"22/07/08","01:30",0.0,22.8,86.1,1002.9,339.7,0.3,1.3,339.3,0.00,20.4,25.1,"01:20:24",1
"22/07/08","01:40",0.0,22.6,86.4,1003.1,322.0,0.8,1.3,325.2,0.00,20.3,25.0,"01:34:56",1
"22/07/08","01:50",0.0,22.5,86.7,1003.1,287.1,0.8,1.2,326.2,0.00,20.2,25.0,"01:46:40",1
"22/07/08","02:00",0.0,22.4,87.0,1002.9,315.7,1.0,1.4,327.9,0.00,20.2,24.9,"01:55:36",1
"22/07/08","02:10",0.0,22.4,87.4,1002.9,300.8,1.3,2.1,311.9,0.00,20.2,24.8,"02:07:44",1
"22/07/08","02:20",0.0,22.4,87.7,1002.6,306.3,1.5,2.4,317.2,0.00,20.3,24.8,"02:13:04",1
"22/07/08","02:30",0.0,22.4,87.9,1002.6,312.2,1.5,2.4,315.3,0.00,20.3,24.8,"02:27:36",1
"22/07/08","02:40",0.0,22.4,88.0,1002.6,313.2,1.3,2.8,334.2,0.00,20.4,24.7,"02:32:32",1
"22/07/08","02:50",0.0,22.4,88.0,1002.4,326.0,1.2,2.0,349.7,0.00,20.4,24.8,"02:42:16",1
"22/07/08","03:00",0.0,22.3,88.1,1002.2,304.8,1.1,1.6,307.1,0.00,20.3,24.8,"02:50:08",1
"22/07/08","03:10",0.0,22.2,88.3,1002.2,328.1,1.2,1.7,330.8,0.00,20.2,24.8,"03:02:08",1
"22/07/08","03:20",0.0,22.1,88.4,1001.9,313.5,1.1,1.7,324.2,0.00,20.1,24.6,"03:13:44",1
"22/07/08","03:30",0.0,21.9,88.7,1002.2,300.3,0.7,1.4,323.6,0.00,20.0,24.7,"03:26:40",1
"22/07/08","03:40",0.0,21.8,88.9,1001.9,305.7,1.1,1.3,320.4,0.00,19.9,24.8,"03:36:00",1
"22/07/08","03:50",0.0,21.8,89.1,1001.9,305.4,1.1,1.4,340.8,0.00,20.0,24.6,"03:40:48",1
"22/07/08","04:00",0.0,21.9,89.6,1002.2,326.2,1.2,1.7,342.0,0.00,20.2,24.6,"03:57:12",1
"22/07/08","04:10",0.0,21.9,89.8,1002.2,328.8,1.3,1.7,327.0,0.00,20.2,24.5,"04:00:48",1
"22/07/08","04:20",0.0,21.8,90.2,1002.2,298.7,1.3,1.9,319.9,0.00,20.2,24.7,"04:10:16",1
"22/07/08","04:30",0.0,21.8,90.5,1001.9,306.1,1.1,2.4,334.2,0.00,20.2,24.2,"04:28:08",1
"22/07/08","04:40",0.0,21.8,90.6,1001.9,301.1,1.3,2.1,323.0,0.00,20.2,24.5,"04:35:12",1
"22/07/08","04:50",0.0,21.9,90.7,1002.2,312.1,1.7,2.4,333.5,0.00,20.4,24.3,"04:45:20",1
"22/07/08","05:00",0.0,21.9,90.7,1002.2,301.8,1.5,2.0,329.1,0.00,20.4,24.6,"04:56:16",1
"22/07/08","05:10",0.0,22.0,90.7,1002.4,304.4,1.1,1.9,326.1,0.00,20.4,24.2,"05:03:52",1
"22/07/08","05:20",0.0,22.0,90.8,1002.6,284.8,1.0,1.3,270.6,0.00,20.5,24.4,"05:19:20",1
"22/07/08","05:30",0.0,22.0,90.8,1002.4,307.7,1.5,2.2,316.6,0.00,20.5,24.4,"05:25:28",1
"22/07/08","05:40",0.0,22.1,90.8,1002.4,331.4,1.1,1.6,350.5,0.00,20.6,24.3,"05:35:04",1
"22/07/08","05:50",0.0,22.2,90.9,1002.6,298.7,1.0,1.3,303.8,0.00,20.7,24.3,"05:44:16",1
"22/07/08","06:00",0.0,22.2,91.1,1002.2,291.2,1.2,1.8,307.7,0.00,20.7,24.3,"05:57:36",1
"22/07/08","06:10",0.0,22.4,91.1,1002.4,298.5,1.1,1.8,320.5,0.02,20.9,24.2,"06:07:52",1
"22/07/08","06:20",0.0,22.6,90.9,1002.4,309.7,1.0,1.7,321.2,0.02,21.1,24.2,"06:18:00",1
"22/07/08","06:30",0.0,23.1,90.9,1002.4,316.6,0.5,0.9,328.9,0.04,21.6,24.2,"06:23:12",1
"22/07/08","06:40",0.0,23.3,90.6,1002.4,338.3,0.8,1.4,341.7,0.04,21.7,24.2,"06:32:56",1
"22/07/08","06:50",0.0,23.6,90.2,1002.6,335.2,1.1,1.8,327.4,0.05,21.9,24.2,"06:49:52",1
"22/07/08","07:00",0.0,23.7,89.9,1002.6,319.8,1.1,2.0,337.2,0.05,22.0,24.4,"06:51:04",1
"22/07/08","07:10",0.0,23.9,89.5,1002.4,299.3,1.0,1.7,257.5,0.06,22.1,24.2,"07:00:48",1
"22/07/08","07:20",0.0,24.2,88.9,1002.4,336.2,1.2,2.0,341.8,0.06,22.3,24.3,"07:18:32",1
"22/07/08","07:30",0.0,24.6,88.3,1002.2,325.5,1.1,1.7,328.4,0.08,22.6,23.9,"07:25:20",1
"22/07/08","07:40",0.0,24.8,87.5,1001.9,282.5,1.0,1.6,245.8,0.09,22.6,24.3,"07:35:20",1
"22/07/08","07:50",0.0,25.3,86.8,1002.2,222.7,0.5,1.1,153.6,0.11,23.0,24.1,"07:48:32",1
"22/07/08","08:00",0.0,25.7,86.1,1002.2,163.6,0.3,1.0,169.7,0.10,23.2,24.3,"07:54:32",1
"22/07/08","08:10",0.0,26.0,85.2,1001.9,161.7,0.1,1.2,124.7,0.10,23.4,24.1,"08:09:44",1
"22/07/08","08:20",0.0,26.5,84.4,1001.9,11.5,0.2,1.1,136.9,0.15,23.7,24.3,"08:10:24",1
"22/07/08","08:30",0.0,27.1,83.1,1001.7,149.2,0.2,0.8,101.3,0.17,24.0,24.3,"08:26:32",1
"22/07/08","08:40",0.0,27.0,81.5,1001.0,126.7,0.3,1.3,114.9,0.09,23.6,24.2,"08:37:52",1
"22/07/08","08:50",0.0,27.4,80.9,1001.2,200.9,0.2,0.6,213.7,0.11,23.9,24.3,"08:41:12",1
"22/07/08","09:00",0.0,27.0,79.8,1001.0,196.1,0.7,1.9,236.6,0.04,23.3,24.2,"08:56:56",1
"22/07/08","09:10",0.0,26.9,80.8,1001.0,225.2,0.7,1.7,204.8,0.06,23.4,24.2,"09:03:28",1
"22/07/08","09:20",0.0,27.0,80.4,1001.0,217.6,0.8,1.8,238.8,0.13,23.4,24.2,"09:16:16",1
"22/07/08","09:30",0.0,27.5,79.6,1001.0,269.0,0.5,1.3,254.7,0.15,23.7,24.4,"09:26:16",1
"22/07/08","09:40",0.0,27.8,78.3,1001.2,145.5,0.6,1.6,142.7,0.14,23.7,24.3,"09:38:16",1
"22/07/08","09:50",0.0,28.3,77.5,1001.5,112.6,0.5,1.2,88.2,0.18,24.0,24.5,"09:42:32",1
"22/07/08","10:00",0.0,27.9,76.2,1001.7,205.7,1.2,3.2,199.3,0.15,23.4,24.3,"09:57:20",1
"22/07/08","10:10",0.0,28.2,76.5,1001.7,197.7,1.1,2.4,236.9,0.18,23.7,24.3,"10:06:08",1
"22/07/08","10:20",0.0,28.3,75.7,1001.5,193.4,1.1,2.9,223.6,0.18,23.6,24.5,"10:10:48",1
"22/07/08","10:30",0.0,28.3,75.6,1001.5,186.5,1.3,3.4,202.5,0.24,23.6,24.5,"10:27:28",1
"22/07/08","10:40",0.0,28.6,76.3,1001.2,169.5,1.1,2.5,180.5,0.27,24.1,24.5,"10:36:08",1
"22/07/08","10:50",0.0,28.8,75.5,1001.7,190.0,1.3,2.5,229.0,0.24,24.1,24.5,"10:43:04",1
"22/07/08","11:00",0.0,28.8,75.5,1001.7,178.2,1.1,1.9,217.1,0.21,24.1,24.4,"10:52:48",1
"22/07/08","11:10",0.0,29.8,74.1,1001.5,179.1,1.1,2.4,130.3,0.43,24.7,24.7,"11:04:32",1
"22/07/08","11:20",0.0,30.5,71.0,1002.2,196.9,1.5,2.9,234.5,0.54,24.7,24.7,"11:13:20",1
"22/07/08","11:30",0.0,30.4,71.1,1002.2,129.1,1.0,3.2,141.7,0.30,24.6,24.6,"11:24:40",1
"22/07/08","11:40",0.0,30.3,71.4,1001.7,156.4,1.1,2.1,171.1,0.28,24.6,24.7,"11:33:36",1
"22/07/08","11:50",0.0,30.2,71.1,1001.9,138.5,1.0,2.0,143.9,0.24,24.4,24.8,"11:44:24",1
"22/07/08","12:00",0.0,30.7,71.8,1001.5,142.6,1.0,2.4,187.2,0.36,25.1,24.9,"11:50:16",1
"22/07/08","12:10",0.0,31.0,70.5,1001.7,158.3,1.0,2.5,148.4,0.34,25.0,24.9,"12:04:16",1
"22/07/08","12:20",0.0,30.6,69.9,1001.7,207.9,1.2,2.9,191.3,0.28,24.5,24.9,"12:19:04",1
"22/07/08","12:30",0.0,31.0,70.7,1001.5,148.0,1.1,2.9,185.4,0.36,25.1,24.8,"12:20:16",1
"22/07/08","12:40",0.0,31.3,69.1,1001.5,146.0,1.3,2.7,130.7,0.40,25.0,25.0,"12:33:44",1
"22/07/08","12:50",0.0,31.7,67.6,1001.5,156.4,1.6,2.8,133.6,0.49,25.0,25.1,"12:48:08",1
"22/07/08","13:00",0.0,31.9,66.8,1001.5,140.1,0.8,2.0,126.1,0.35,25.0,25.0,"12:50:24",1
"22/07/08","13:10",0.0,31.5,66.7,1001.5,177.4,1.3,3.9,205.8,0.29,24.6,25.2,"13:08:24",1
"22/07/08","13:20",0.0,32.0,68.2,1001.2,174.0,1.0,2.4,185.9,0.34,25.4,25.1,"13:10:16",1
"22/07/08","13:30",0.0,32.2,66.5,1001.0,224.0,1.1,2.8,153.5,0.46,25.2,25.1,"13:28:32",1
"22/07/08","13:40",0.0,32.6,65.9,1000.8,186.3,1.0,2.6,233.2,0.39,25.4,25.2,"13:34:24",1
"22/07/08","13:50",0.0,32.6,64.3,1000.5,170.9,1.2,2.7,204.3,0.44,25.0,25.4,"13:48:08",1
"22/07/08","14:00",0.0,32.9,65.4,1000.5,158.6,1.3,3.2,214.8,0.47,25.6,25.5,"13:56:56",1
"22/07/08","14:10",0.0,32.4,64.2,1000.8,172.5,1.2,2.8,173.9,0.33,24.8,25.5,"14:09:36",1
"22/07/08","14:20",0.0,31.8,67.0,1000.5,193.4,1.8,4.7,232.9,0.27,25.0,25.5,"14:17:36",1
"22/07/08","14:30",0.0,31.9,65.7,999.8,174.8,1.5,3.9,235.0,0.31,24.7,25.6,"14:23:28",1
"22/07/08","14:40",0.0,32.1,64.9,999.8,199.5,1.5,3.1,208.9,0.31,24.7,25.7,"14:33:36",1
"22/07/08","14:50",0.0,32.2,64.3,1000.0,137.3,1.0,2.9,196.5,0.27,24.6,25.5,"14:48:16",1
"22/07/08","15:00",0.0,31.8,65.4,999.6,163.2,1.1,2.1,236.4,0.21,24.5,25.7,"14:59:12",1
"22/07/08","15:10",0.0,31.9,65.7,999.6,218.4,0.7,2.1,206.7,0.16,24.7,25.6,"15:03:04",1
"22/07/08","15:20",0.0,31.7,66.2,999.3,119.1,1.0,2.6,131.7,0.13,24.7,25.7,"15:18:56",1
"22/07/08","15:30",0.0,30.7,69.2,998.9,93.8,1.1,3.7,123.2,0.10,24.4,25.8,"15:27:04",1
"22/07/08","15:40",0.0,30.6,69.6,998.4,52.5,0.7,1.8,40.9,0.11,24.4,25.6,"15:36:48",1
"22/07/08","15:50",0.0,30.5,68.4,998.6,14.1,1.3,3.7,0.8,0.10,24.1,25.8,"15:48:48",1
"22/07/08","16:00",0.0,30.4,69.6,998.2,2.4,1.3,2.6,351.8,0.06,24.3,25.7,"15:59:12",1
"22/07/08","16:10",0.0,30.1,71.0,997.7,355.9,1.7,3.1,355.5,0.03,24.3,25.8,"16:07:12",1
"22/07/08","16:20",0.0,29.1,74.7,997.0,347.9,2.7,4.7,338.2,0.01,24.2,25.8,"16:15:28",1
"22/07/08","16:30",0.4,26.8,80.2,996.3,336.1,2.8,6.2,338.9,0.02,23.1,25.8,"16:22:56",1
"22/07/08","16:40",0.0,25.8,83.2,997.2,333.2,2.2,3.6,347.3,0.04,22.8,25.7,"16:38:00",1
"22/07/08","16:50",0.0,25.8,84.9,997.4,329.0,1.5,2.9,349.8,0.04,23.1,25.9,"16:40:16",1
"22/07/08","17:00",0.0,25.5,85.7,997.4,323.6,2.1,3.9,344.3,0.02,23.0,25.9,"16:56:08",1
"22/07/08","17:10",0.0,25.5,86.2,997.7,325.3,2.3,4.5,337.6,0.03,23.1,25.8,"17:06:16",1
"22/07/08","17:20",0.0,25.2,86.4,997.9,330.3,3.9,7.5,336.9,0.02,22.8,25.7,"17:19:04",1
"22/07/08","17:30",0.0,25.2,86.8,997.9,327.2,2.5,4.3,330.1,0.01,22.9,25.8,"17:29:44",1
"22/07/08","17:40",0.0,25.2,87.3,997.7,330.5,3.1,7.0,336.4,0.00,23.0,25.7,"17:33:12",1
"22/07/08","17:50",0.0,25.3,87.7,997.7,308.8,2.2,5.4,325.3,0.00,23.2,25.8,"17:40:48",1
"22/07/08","18:00",0.4,25.3,88.2,997.9,336.8,1.5,4.0,335.0,0.00,23.2,25.7,"17:51:28",1
"22/07/08","18:10",1.2,25.1,88.8,997.7,337.6,1.5,3.2,318.4,0.01,23.2,25.7,"18:02:08",1
"22/07/08","18:20",0.2,25.3,89.3,997.9,349.8,1.3,2.8,352.0,0.02,23.5,25.7,"18:18:08",1
"22/07/08","18:30",0.0,25.3,89.8,997.9,341.5,1.7,3.4,350.1,0.02,23.5,25.7,"18:22:00",1
"22/07/08","18:40",0.0,25.3,90.1,997.9,315.6,1.3,2.7,304.5,0.01,23.6,25.6,"18:30:24",1
"22/07/08","18:50",0.0,25.3,90.4,998.2,324.6,1.6,3.2,337.2,0.02,23.7,25.4,"18:48:00",1
"22/07/08","19:00",0.0,25.4,90.7,998.2,328.3,1.3,2.0,350.5,0.02,23.8,25.6,"18:52:24",1
"22/07/08","19:10",0.0,25.4,91.0,998.4,335.0,1.8,3.5,344.2,0.01,23.9,25.5,"19:06:08",1
"22/07/08","19:20",0.0,25.3,91.2,998.4,332.9,2.0,3.9,334.9,0.01,23.8,25.5,"19:13:52",1
"22/07/08","19:30",0.0,25.2,91.3,998.4,329.8,2.1,3.9,339.6,0.00,23.7,25.5,"19:29:20",1
"22/07/08","19:40",0.0,25.1,91.4,998.6,340.0,2.2,3.6,347.1,0.00,23.6,25.5,"19:32:24",1
"22/07/08","19:50",0.0,25.0,91.5,998.2,334.3,1.6,2.8,341.4,0.00,23.6,25.4,"19:49:20",1
"22/07/08","20:00",0.0,25.0,91.6,998.4,318.8,2.0,3.5,320.8,0.00,23.6,25.3,"19:52:32",1
"22/07/08","20:10",0.0,25.0,91.8,998.4,328.1,2.0,3.3,320.5,0.00,23.6,25.5,"20:02:16",1
"22/07/08","20:20",0.0,24.9,91.9,998.2,332.9,1.5,2.5,340.4,0.00,23.5,25.3,"20:10:40",1
"22/07/08","20:30",0.0,24.8,92.0,998.6,334.1,1.8,2.9,343.3,0.00,23.5,25.5,"20:29:52",1
"22/07/08","20:40",0.0,24.8,92.2,998.9,329.0,1.8,3.2,336.7,0.00,23.5,25.4,"20:30:16",1
"22/07/08","20:50",0.0,24.8,92.3,999.1,327.6,1.5,2.5,316.4,0.00,23.5,25.2,"20:46:08",1
"22/07/08","21:00",0.0,24.8,92.4,999.1,332.5,2.0,3.3,334.0,0.00,23.5,25.4,"20:54:56",1
"22/07/08","21:10",0.0,24.7,92.4,999.3,314.3,1.5,2.4,297.5,0.00,23.4,25.4,"21:08:16",1
"22/07/08","21:20",0.0,24.6,92.5,999.1,316.5,1.5,2.9,338.4,0.00,23.3,25.3,"21:13:20",1
"22/07/08","21:30",0.0,24.5,92.5,999.1,176.5,0.2,0.5,259.1,0.00,23.2,25.2,"21:20:24",1
"22/07/08","21:40",0.0,24.5,92.8,999.1,275.7,0.7,2.6,319.2,0.00,23.3,25.3,"21:39:20",1
"22/07/08","21:50",0.0,24.3,92.8,998.6,290.6,1.5,3.5,323.3,0.00,23.1,25.1,"21:48:24",1
"22/07/08","22:00",0.0,24.4,93.0,998.6,326.1,1.7,3.2,333.3,0.00,23.2,25.1,"21:51:20",1
"22/07/08","22:10",0.0,24.4,93.0,998.9,338.4,1.5,2.1,326.6,0.00,23.2,25.2,"22:01:12",1
"22/07/08","22:20",0.0,24.3,93.1,998.6,330.0,1.3,2.5,337.2,0.00,23.2,25.2,"22:17:12",1
"22/07/08","22:30",0.0,24.3,93.2,998.9,317.1,1.0,2.0,333.7,0.00,23.2,25.0,"22:21:36",1
"22/07/08","22:40",0.0,24.2,93.4,998.4,330.1,1.7,3.3,341.7,0.00,23.1,25.3,"22:39:12",1
"22/07/08","22:50",0.0,24.2,93.5,998.4,336.1,2.2,3.6,336.1,0.00,23.1,25.0,"22:49:44",1
"22/07/08","23:00",0.0,24.2,93.5,998.2,341.5,2.0,3.6,344.5,0.00,23.1,25.3,"22:50:16",1
"22/07/08","23:10",0.0,24.2,93.5,998.4,327.7,1.2,2.4,305.8,0.00,23.1,25.2,"23:06:00",1
"22/07/08","23:20",0.0,24.1,93.5,998.2,296.3,0.8,1.7,319.6,0.00,23.0,25.0,"23:14:00",1
"22/07/08","23:30",0.0,24.2,93.6,998.6,301.2,0.8,1.1,315.3,0.00,23.1,25.1,"23:25:28",1
"22/07/08","23:40",0.0,24.3,93.7,998.4,331.4,1.2,1.7,319.8,0.00,23.3,25.1,"23:32:08",1
"22/07/08","23:50",0.0,24.3,93.7,998.4,311.7,0.8,1.6,339.3,0.00,23.3,24.8,"23:40:08",1
"22/07/08","24:00",0.0,24.1,93.8,997.9,300.0,1.1,1.6,303.8,0.00,23.1,24.8,"23:53:04",1
